COSMOS 1931

Satellite information

Favourite Embed

Satellite Type and Status

PAYLOADIN ORBIT

Key statistics

Satellite COSMOS 1931 at a glance.

Uptime

13634

Days in orbit

Revolutions

≈ 12.6

Per day

Orbit

LEO

Low Earth Orbit

Inclination

74.0

Latest

Satellite identification and parameters

Extended collection of information and parameters for COSMOS 1931.

Object identification

Identified? True

Debris? False

Object name: COSMOS 1931

International designator: 1988-016H

Object number (NORAD): 18944

Object ID (CCSDS): 18944

Country: COMMONWEALTH OF INDEPENDENT STATES (CIS)

Current information (Y/N): Y

RCS size: MEDIUM

Orbital parameters

Period: 114.415 minutes

Inclination: 74.0072 deg

SMA: 7806.984 km

Apoapsis: 1460.377 km

Periapsis: 1397.32 km

RAAN: 108.7915 deg

Eccentricy: 0.0040385

Argument of periapsis: 179.0354 deg

Mean anomaly: 251.827 deg

Mean motion: 12.58571406 rev/day

Mean motion (dot): -0.00000029 rev/day2

B* drag term: -0.000075943 1/REarth

Two-line elements (TLE)

Creation date: July 9, 2025, 2:22 a.m.

Reference frame: TEME

Reference center: EARTH

Epoch: July 8, 2025, 8:52 p.m. UTC

TLE line 0: 0 COSMOS 1931

TLE line 1: 1 18944U 88016H 25189.87008522 -.00000029 00000-0 -75943-4 0 9991

TLE line 2: 2 18944 74.0072 108.7915 0040385 179.0354 251.8270 12.58571406714936

Live tracking on map

Real-time ground track for satellite COSMOS 1931.

In-orbit conjunctions

A list of the most updated potential collisions computed for object COSMOS 1931.

Target Orbit TCA Probability of collision Miss distance Type
COSMOS 827 LEO 2025-05-17 06:19:17 0.03046397 24.0 (m) PAYLOAD

Associated space launch

Military communications satellites

COSMOS 1931 was lifted into orbit during the mission ‘Kosmos-3M | Strela-1M 329-336’, on board a Kosmos-3M space rocket.

The launch took place on March 11, 1988, 12:18 a.m. from 132/1 (132L).

For more information about the launch, click the button.

Launch to space Kosmos-3M | Strela-1M 329-336
Kosmos-3M | Strela-1M 329-336

Agency: N/A

Status: Launch Successful

Launch date: March 11, 1988, 12:18 a.m. UTC

Rocket: Kosmos-3M

Launch pad: 132/1 (132L)

Location: Plesetsk Cosmodrome, Russian Federation

...

Latest news about this satellite

There are no fresh news available about this satellite. Check back as we update our databases every day.


Newsletter sign-up

Weekly statistics, charts and insights to help you stay on top of the space industry.